Time,TemperatureF,DewpointF,PressureIn,WindDirection,WindDirectionDegrees,WindSpeedMPH,WindSpeedGustMPH,Humidity,HourlyPrecipIn,Conditions,Clouds,dailyrainin,SoftwareType,DateUTC
2013-12-21 00:03:00,32.7,30.4,29.79,NNE,22,0.0,0.0,91,0.00,,,0.00,WUHU21623XXSP,2013-12-21 06:03:00,
2013-12-21 00:08:00,32.7,30.4,29.80,NNE,22,0.0,0.0,91,0.00,,,0.00,WUHU21623XXSP,2013-12-21 06:08:00,
2013-12-21 00:13:00,32.7,30.4,29.81,NE,45,0.0,0.0,91,0.00,,,0.00,WUHU21623XXSP,2013-12-21 06:13:00,
2013-12-21 00:18:00,32.5,30.2,29.81,NNW,337,0.0,0.0,91,0.00,,,0.00,WUHU21623XXSP,2013-12-21 06:18:00,
2013-12-21 00:23:00,32.5,30.2,29.81,NNW,337,0.0,0.0,91,0.00,,,0.00,WUHU21623XXSP,2013-12-21 06:23:00,
2013-12-21 00:28:00,32.5,30.2,29.82,North,0,0.0,0.0,91,0.00,,,0.00,WUHU21623XXSP,2013-12-21 06:28:00,
2013-12-21 00:33:00,32.2,29.9,29.80,NE,45,0.0,0.0,91,0.00,,,0.00,WUHU21623XXSP,2013-12-21 06:33:00,
2013-12-21 00:38:00,32.2,29.9,29.83,North,0,0.0,0.0,91,0.00,,,0.00,WUHU21623XXSP,2013-12-21 06:38:00,
2013-12-21 00:43:00,31.8,29.6,29.84,North,0,0.0,0.0,91,0.00,,,0.00,WUHU21623XXSP,2013-12-21 06:43:00,
2013-12-21 00:48:00,31.8,29.6,29.80,North,0,2.0,2.0,91,0.00,,,0.00,WUHU21623XXSP,2013-12-21 06:48:00,
2013-12-21 00:53:00,31.6,29.4,29.79,North,0,1.8,4.0,91,0.00,,,0.00,WUHU21623XXSP,2013-12-21 06:53:00,
2013-12-21 00:58:00,31.6,29.4,29.81,NE,45,0.0,4.0,91,0.00,,,0.00,WUHU21623XXSP,2013-12-21 06:58:00,
2013-12-21 01:03:00,31.6,29.4,29.82,NE,45,0.0,0.0,91,0.00,,,0.00,WUHU21623XXSP,2013-12-21 07:03:00,
2013-12-21 01:08:00,31.3,29.0,29.79,WNW,292,0.0,0.0,91,0.00,,,0.00,WUHU21623XXSP,2013-12-21 07:08:00,
2013-12-21 01:13:00,31.3,29.0,29.82,NNE,22,0.0,0.0,91,0.00,,,0.00,WUHU21623XXSP,2013-12-21 07:13:00,
2013-12-21 01:18:00,31.3,29.0,29.79,East,90,0.0,0.0,91,0.00,,,0.00,WUHU21623XXSP,2013-12-21 07:18:00,
2013-12-21 01:23:00,31.3,29.0,29.79,ENE,67,0.0,0.0,91,0.00,,,0.00,WUHU21623XXSP,2013-12-21 07:23:00,
2013-12-21 01:28:00,31.6,29.4,29.80,ENE,67,0.0,0.0,91,0.00,,,0.00,WUHU21623XXSP,2013-12-21 07:28:00,
2013-12-21 01:33:00,31.6,29.4,29.78,ENE,67,0.0,0.0,91,0.00,,,0.00,WUHU21623XXSP,2013-12-21 07:33:00,
2013-12-21 01:38:00,31.6,29.4,29.80,ENE,67,0.0,0.0,91,0.00,,,0.00,WUHU21623XXSP,2013-12-21 07:38:00,
2013-12-21 01:43:00,31.8,29.6,29.79,NNE,22,0.0,0.0,91,0.00,,,0.00,WUHU21623XXSP,2013-12-21 07:43:00,
2013-12-21 01:48:00,31.8,29.6,29.79,NNE,22,0.0,0.0,91,0.00,,,0.00,WUHU21623XXSP,2013-12-21 07:48:00,
2013-12-21 01:53:00,31.8,29.6,29.79,ENE,67,0.0,0.0,91,0.00,,,0.00,WUHU21623XXSP,2013-12-21 07:53:00,
2013-12-21 01:58:00,32.2,29.9,29.79,ENE,67,0.0,0.0,91,0.00,,,0.00,WUHU21623XXSP,2013-12-21 07:58:00,
2013-12-21 02:03:00,32.2,29.9,29.79,ENE,67,0.0,0.0,91,0.00,,,0.00,WUHU21623XXSP,2013-12-21 08:03:00,
2013-12-21 02:08:00,32.4,30.3,29.79,NE,45,0.0,0.0,92,0.00,,,0.00,WUHU21623XXSP,2013-12-21 08:08:00,
2013-12-21 02:13:00,32.4,30.3,29.80,NE,45,0.0,0.0,92,0.00,,,0.00,WUHU21623XXSP,2013-12-21 08:13:00,
2013-12-21 02:18:00,32.7,30.5,29.80,NE,45,0.0,0.0,92,0.00,,,0.00,WUHU21623XXSP,2013-12-21 08:18:00,
2013-12-21 02:23:00,32.7,30.6,29.80,North,0,0.0,0.0,92,0.00,,,0.00,WUHU21623XXSP,2013-12-21 08:23:00,
2013-12-21 02:28:00,32.7,30.6,29.79,NW,315,0.0,3.4,92,0.00,,,0.00,WUHU21623XXSP,2013-12-21 08:28:00,
2013-12-21 02:33:00,32.7,30.6,29.79,North,0,0.0,3.4,92,0.00,,,0.00,WUHU21623XXSP,2013-12-21 08:33:00,
2013-12-21 02:38:00,32.7,30.6,29.80,North,0,0.0,0.0,92,0.00,,,0.00,WUHU21623XXSP,2013-12-21 08:38:00,
2013-12-21 02:43:00,32.7,30.6,29.80,North,0,0.0,0.0,92,0.00,,,0.00,WUHU21623XXSP,2013-12-21 08:43:00,
2013-12-21 02:48:00,32.7,30.6,29.80,North,0,0.0,0.0,92,0.00,,,0.00,WUHU21623XXSP,2013-12-21 08:48:00,
2013-12-21 02:53:00,32.7,30.6,29.79,NNE,22,0.0,0.0,92,0.00,,,0.00,WUHU21623XXSP,2013-12-21 08:53:00,
2013-12-21 02:58:00,32.7,30.6,29.79,North,0,0.0,0.0,92,0.00,,,0.00,WUHU21623XXSP,2013-12-21 08:58:00,
2013-12-21 03:03:00,32.9,30.6,29.78,North,0,0.0,0.0,92,0.00,,,0.00,WUHU21623XXSP,2013-12-21 09:03:00,
2013-12-21 03:08:00,32.9,30.8,29.77,NNE,22,0.0,0.0,92,0.00,,,0.00,WUHU21623XXSP,2013-12-21 09:08:00,
2013-12-21 03:13:00,32.9,30.8,29.79,NNE,22,0.0,0.0,92,0.00,,,0.00,WUHU21623XXSP,2013-12-21 09:13:00,
2013-12-21 03:18:00,32.9,30.8,29.78,NNE,22,0.0,0.0,92,0.00,,,0.00,WUHU21623XXSP,2013-12-21 09:18:00,
2013-12-21 03:23:00,33.1,30.8,29.79,NNE,22,0.0,0.0,92,0.00,,,0.00,WUHU21623XXSP,2013-12-21 09:23:00,
2013-12-21 03:28:00,33.1,31.0,29.78,NNE,22,0.0,0.0,92,0.00,,,0.00,WUHU21623XXSP,2013-12-21 09:28:00,
2013-12-21 03:33:00,33.3,31.1,29.76,NNE,22,0.0,0.0,92,0.00,,,0.00,WUHU21623XXSP,2013-12-21 09:33:00,
2013-12-21 03:38:00,33.4,31.3,29.77,NNE,22,0.0,0.0,92,0.00,,,0.00,WUHU21623XXSP,2013-12-21 09:38:00,
2013-12-21 03:43:00,33.4,31.3,29.76,NE,45,0.0,0.0,92,0.00,,,0.00,WUHU21623XXSP,2013-12-21 09:43:00,
2013-12-21 03:48:00,33.6,31.3,29.76,NE,45,0.0,0.0,92,0.00,,,0.00,WUHU21623XXSP,2013-12-21 09:48:00,
2013-12-21 03:53:00,33.6,31.5,29.76,NE,45,0.0,0.0,92,0.00,,,0.00,WUHU21623XXSP,2013-12-21 09:53:00,
2013-12-21 03:58:00,33.6,31.5,29.76,NNE,22,0.0,0.0,92,0.00,,,0.00,WUHU21623XXSP,2013-12-21 09:58:00,
2013-12-21 04:03:00,33.8,31.5,29.75,NNE,22,0.0,0.0,92,0.00,,,0.00,WUHU21623XXSP,2013-12-21 10:03:00,
2013-12-21 04:08:00,33.8,31.6,29.75,NNE,22,0.0,0.0,92,0.00,,,0.00,WUHU21623XXSP,2013-12-21 10:08:00,
2013-12-21 04:13:00,34.0,31.8,29.76,NNE,22,0.0,0.0,92,0.00,,,0.00,WUHU21623XXSP,2013-12-21 10:13:00,
2013-12-21 04:18:00,34.2,32.0,29.77,NNE,22,0.0,0.0,92,0.00,,,0.00,WUHU21623XXSP,2013-12-21 10:18:00,
2013-12-21 04:23:00,34.3,32.2,29.78,NNE,22,0.0,0.0,92,0.00,,,0.00,WUHU21623XXSP,2013-12-21 10:23:00,
2013-12-21 04:28:00,34.3,32.2,29.79,NNE,22,0.0,0.0,92,0.00,,,0.00,WUHU21623XXSP,2013-12-21 10:28:00,
2013-12-21 04:33:00,34.2,32.0,29.81,NW,315,0.0,0.0,92,0.00,,,0.00,WUHU21623XXSP,2013-12-21 10:33:00,
2013-12-21 04:38:00,34.0,32.0,29.83,NW,315,0.0,0.0,92,0.00,,,0.00,WUHU21623XXSP,2013-12-21 10:38:00,
2013-12-21 04:43:00,33.6,31.5,29.82,NNW,337,2.0,2.0,92,0.00,,,0.00,WUHU21623XXSP,2013-12-21 10:43:00,
2013-12-21 04:48:00,33.4,31.3,29.83,WNW,292,0.0,2.0,92,0.00,,,0.00,WUHU21623XXSP,2013-12-21 10:48:00,
2013-12-21 04:53:00,33.3,31.3,29.81,NW,315,0.0,0.0,92,0.00,,,0.00,WUHU21623XXSP,2013-12-21 10:53:00,
2013-12-21 04:58:00,33.1,31.0,29.80,NW,315,1.6,1.6,92,0.00,,,0.00,WUHU21623XXSP,2013-12-21 10:58:00,
2013-12-21 05:03:00,32.9,30.8,29.77,NNE,22,0.0,1.6,92,0.00,,,0.00,WUHU21623XXSP,2013-12-21 11:03:00,
2013-12-21 05:08:00,32.7,30.6,29.76,North,0,0.0,3.6,92,0.00,,,0.00,WUHU21623XXSP,2013-12-21 11:08:00,
2013-12-21 05:13:00,32.7,30.6,29.77,North,0,0.0,3.6,92,0.00,,,0.00,WUHU21623XXSP,2013-12-21 11:13:00,
2013-12-21 05:18:00,32.5,30.5,29.77,NNE,22,0.0,0.0,92,0.00,,,0.00,WUHU21623XXSP,2013-12-21 11:18:00,
2013-12-21 05:23:00,32.5,30.5,29.79,North,0,0.0,0.0,92,0.00,,,0.00,WUHU21623XXSP,2013-12-21 11:23:00,
2013-12-21 05:28:00,32.5,30.5,29.81,WNW,292,0.0,0.0,92,0.00,,,0.00,WUHU21623XXSP,2013-12-21 11:28:00,
2013-12-21 05:33:00,32.5,30.5,29.82,WNW,292,0.0,0.0,92,0.00,,,0.00,WUHU21623XXSP,2013-12-21 11:33:00,
2013-12-21 05:38:00,32.5,30.5,29.82,WNW,292,0.0,0.0,92,0.00,,,0.00,WUHU21623XXSP,2013-12-21 11:38:00,
2013-12-21 05:43:00,32.4,30.3,29.82,WNW,292,0.0,0.0,92,0.00,,,0.00,WUHU21623XXSP,2013-12-21 11:43:00,
2013-12-21 05:48:00,32.4,30.3,29.81,North,0,0.0,0.0,92,0.00,,,0.00,WUHU21623XXSP,2013-12-21 11:48:00,
2013-12-21 05:53:00,32.4,30.3,29.81,North,0,0.0,0.0,92,0.00,,,0.00,WUHU21623XXSP,2013-12-21 11:53:00,
2013-12-21 05:58:00,32.4,30.3,29.80,NNW,337,0.0,0.0,92,0.00,,,0.00,WUHU21623XXSP,2013-12-21 11:58:00,
2013-12-21 06:03:00,32.2,30.3,29.80,North,0,0.0,0.0,92,0.00,,,0.00,WUHU21623XXSP,2013-12-21 12:03:00,
2013-12-21 06:08:00,32.2,30.1,29.80,North,0,0.0,0.0,92,0.00,,,0.00,WUHU21623XXSP,2013-12-21 12:08:00,
2013-12-21 06:13:00,32.2,30.1,29.79,NNE,22,0.0,0.0,92,0.00,,,0.00,WUHU21623XXSP,2013-12-21 12:13:00,
2013-12-21 06:18:00,32.2,30.1,29.79,NNE,22,0.0,0.0,92,0.00,,,0.00,WUHU21623XXSP,2013-12-21 12:18:00,
2013-12-21 06:23:00,32.2,30.1,29.79,NNE,22,0.0,0.0,92,0.00,,,0.00,WUHU21623XXSP,2013-12-21 12:23:00,
2013-12-21 06:28:00,32.2,30.1,29.81,NNE,22,0.0,0.0,92,0.00,,,0.00,WUHU21623XXSP,2013-12-21 12:28:00,
2013-12-21 06:33:00,32.2,30.1,29.80,NNE,22,0.0,0.0,92,0.00,,,0.00,WUHU21623XXSP,2013-12-21 12:33:00,
2013-12-21 06:38:00,32.2,30.1,29.79,NNE,22,0.0,0.0,92,0.00,,,0.00,WUHU21623XXSP,2013-12-21 12:38:00,
2013-12-21 06:43:00,32.2,30.1,29.80,NNW,337,0.0,0.0,92,0.00,,,0.00,WUHU21623XXSP,2013-12-21 12:43:00,
2013-12-21 06:48:00,32.2,30.1,29.79,NNE,22,0.0,0.0,92,0.00,,,0.00,WUHU21623XXSP,2013-12-21 12:48:00,
2013-12-21 06:53:00,32.0,30.1,29.79,NNE,22,0.0,0.0,92,0.00,,,0.00,WUHU21623XXSP,2013-12-21 12:53:00,
2013-12-21 06:58:00,31.8,29.8,29.79,NNE,22,0.0,0.0,92,0.00,,,0.00,WUHU21623XXSP,2013-12-21 12:58:00,
2013-12-21 07:03:00,31.8,29.8,29.79,NNE,22,0.0,0.0,92,0.00,,,0.00,WUHU21623XXSP,2013-12-21 13:03:00,
2013-12-21 07:08:00,31.8,29.8,29.77,NNE,22,0.0,0.0,92,0.00,,,0.00,WUHU21623XXSP,2013-12-21 13:08:00,
2013-12-21 07:13:00,31.8,29.8,29.76,ENE,67,0.0,0.0,92,0.00,,,0.00,WUHU21623XXSP,2013-12-21 13:13:00,
2013-12-21 07:18:00,31.8,29.8,29.76,NE,45,0.0,0.0,92,0.00,,,0.00,WUHU21623XXSP,2013-12-21 13:18:00,
2013-12-21 07:23:00,31.8,29.8,29.75,NE,45,0.0,0.0,92,0.00,,,0.00,WUHU21623XXSP,2013-12-21 13:23:00,
2013-12-21 07:28:00,32.0,30.0,29.75,ENE,67,0.0,0.0,92,0.00,,,0.00,WUHU21623XXSP,2013-12-21 13:28:00,
2013-12-21 07:33:00,32.2,30.1,29.74,NE,45,0.0,0.0,92,0.00,,,0.00,WUHU21623XXSP,2013-12-21 13:33:00,
2013-12-21 07:38:00,32.2,30.1,29.75,NE,45,0.0,0.0,92,0.00,,,0.00,WUHU21623XXSP,2013-12-21 13:38:00,
2013-12-21 07:43:00,32.2,30.1,29.76,NNE,22,0.0,1.6,92,0.00,,,0.00,WUHU21623XXSP,2013-12-21 13:43:00,
2013-12-21 07:48:00,32.2,30.1,29.76,NNE,22,0.0,1.6,92,0.00,,,0.00,WUHU21623XXSP,2013-12-21 13:48:00,
2013-12-21 07:53:00,32.4,30.3,29.75,NNE,22,0.0,0.0,92,0.00,,,0.00,WUHU21623XXSP,2013-12-21 13:53:00,
2013-12-21 07:58:00,32.4,30.3,29.74,NNE,22,0.0,0.0,92,0.00,,,0.00,WUHU21623XXSP,2013-12-21 13:58:00,
2013-12-21 08:03:00,32.5,30.5,29.73,ENE,67,0.0,0.0,92,0.00,,,0.00,WUHU21623XXSP,2013-12-21 14:03:00,
2013-12-21 08:08:00,32.5,30.5,29.73,ENE,67,0.0,0.0,92,0.00,,,0.00,WUHU21623XXSP,2013-12-21 14:08:00,